SV1KWZ-1 Weather Reports


time (UTC)temp
C
wind
direction
speed
KPH
gust
KPH
rain 1hr
cm
rain 24hr
cm
rain mn
cm
humidity
%
barometer
mb
20260507174203 20 228 3.2 9.7 0.00 0.00 0.00 41 1026.0
20260507173903 20 233 3.2 6.4 0.00 0.00 0.00 42 1025.9
20260507173603 20 234 1.6 6.4 0.00 0.00 0.00 43 1025.7
20260507173303 20 226 3.2 9.7 0.00 0.00 0.00 43 1025.9
20260507173216 20 226 3.2 12.9 0.00 0.00 0.00 43 1026.0
20260507172918 21 231 4.8 14.5 0.00 0.00 0.00 42 1025.9
20260507172403 21 237 8.0 16.1 0.00 0.00 0.00 40 1026.0
20260507172103 21 242 8.0 16.1 0.00 0.00 0.00 39 1026.0
20260507172018 21 243 8.0 16.1 0.00 0.00 0.00 39 1026.0
20260507171503 21 243 6.4 12.9 0.00 0.00 0.00 39 1026.0
20260507171203 21 240 6.4 12.9 0.00 0.00 0.00 38 1025.9
20260507170903 21 242 6.4 12.9 0.00 0.00 0.00 38 1025.9
20260507170817 21 242 6.4 12.9 0.00 0.00 0.00 38 1025.8
20260507170303 21 243 4.8 12.9 0.00 0.00 0.00 39 1025.7
20260507170003 21 240 3.2 12.9 0.00 0.00 0.00 38 1025.4
20260507165703 21 240 3.2 11.3 0.00 0.00 0.00 38 1025.3
20260507165404 21 242 3.2 11.3 0.00 0.00 0.00 38 1025.5
20260507165103 21 237 3.2 11.3 0.00 0.00 0.00 38 1025.5
20260507164803 21 236 3.2 11.3 0.00 0.00 0.00 37 1025.3
20260507164717 21 237 3.2 9.7 0.00 0.00 0.00 39 1025.3
20260507164203 21 235 3.2 9.7 0.00 0.00 0.00 41 1025.3
20260507163903 21 227 3.2 9.7 0.00 0.00 0.00 41 1025.3
20260507163603 21 221 4.8 9.7 0.00 0.00 0.00 39 1025.3
20260507163303 21 223 4.8 9.7 0.00 0.00 0.00 40 1025.2
20260507163218 21 226 4.8 9.7 0.00 0.00 0.00 39 1025.2
20260507162703 21 233 4.8 9.7 0.00 0.00 0.00 43 1025.5
20260507162403 21 239 4.8 6.4 0.00 0.00 0.00 42 1025.6
20260507162103 21 239 4.8 9.7 0.00 0.00 0.00 42 1025.5
20260507161803 21 241 4.8 9.7 0.00 0.00 0.00 39 1025.5
20260507161717 21 242 4.8 9.7 0.00 0.00 0.00 38 1025.5
20260507161203 21 241 4.8 11.3 0.00 0.00 0.00 41 1025.5
20260507161116 21 240 4.8 11.3 0.00 0.00 0.00 41 1025.5
20260507160603 22 238 4.8 11.3 0.00 0.00 0.00 41 1025.4
20260507160518 22 238 4.8 11.3 0.00 0.00 0.00 41 1025.4
20260507160004 22 234 4.8 9.7 0.00 0.00 0.00 38 1025.4
20260507155703 22 236 4.8 9.7 0.00 0.00 0.00 38 1025.5
20260507155403 22 236 3.2 6.4 0.00 0.00 0.00 38 1025.5
20260507155103 22 234 3.2 4.8 0.00 0.00 0.00 37 1025.3
20260507154803 22 232 3.2 4.8 0.00 0.00 0.00 39 1025.5
20260507154503 22 239 3.2 6.4 0.00 0.00 0.00 39 1025.5
20260507154203 21 244 3.2 9.7 0.00 0.00 0.00 40 1025.5
20260507153903 22 242 4.8 9.7 0.00 0.00 0.00 40 1025.4
20260507153603 21 237 4.8 9.7 0.00 0.00 0.00 40 1025.6
20260507153303 22 236 4.8 12.9 0.00 0.00 0.00 40 1025.7
20260507153003 22 235 4.8 12.9 0.00 0.00 0.00 40 1025.8
20260507152917 22 235 4.8 12.9 0.00 0.00 0.00 40 1026.1
20260507152403 22 238 6.4 16.1 0.00 0.00 0.00 41 1025.8
20260507152103 22 240 4.8 16.1 0.00 0.00 0.00 40 1025.9
20260507151803 22 239 3.2 12.9 0.00 0.00 0.00 39 1026.1
20260507151503 22 241 3.2 9.7 0.00 0.00 0.00 39 1025.9
20260507151203 22 243 3.2 12.9 0.00 0.00 0.00 39 1025.9
20260507150903 22 242 3.2 12.9 0.00 0.00 0.00 38 1025.9
20260507150603 22 242 4.8 12.9 0.00 0.00 0.00 38 1025.8
20260507150303 22 238 4.8 12.9 0.00 0.00 0.00 38 1026.0
20260507150003 22 234 4.8 12.9 0.00 0.00 0.00 37 1025.7
20260507145703 22 234 6.4 16.1 0.00 0.00 0.00 38 1025.7
20260507145403 22 240 8.0 16.1 0.00 0.00 0.00 38 1025.8
20260507145317 22 240 8.0 16.1 0.00 0.00 0.00 38 1025.9
20260507145017 22 241 9.7 17.7 0.00 0.00 0.00 35 1025.8
20260507144503 22 237 9.7 17.7 0.00 0.00 0.00 33 1025.7
20260507144203 22 234 9.7 20.9 0.00 0.00 0.00 33 1025.8
20260507143903 22 238 9.7 22.5 0.00 0.00 0.00 32 1025.9
20260507143603 22 240 9.7 22.5 0.00 0.00 0.00 33 1025.9
20260507143303 22 244 11.3 22.5 0.00 0.00 0.00 33 1025.7
20260507143003 22 238 11.3 20.9 0.00 0.00 0.00 33 1025.9
20260507142703 22 236 11.3 20.9 0.00 0.00 0.00 34 1025.9
20260507142403 22 234 11.3 22.5 0.00 0.00 0.00 31 1025.9
20260507142103 22 229 11.3 22.5 0.00 0.00 0.00 31 1025.7
20260507141803 22 227 11.3 22.5 0.00 0.00 0.00 28 1025.8
20260507141503 23 224 9.7 20.9 0.00 0.00 0.00 26 1025.8
20260507141418 23 221 9.7 20.9 0.00 0.00 0.00 26 1025.8
20260507140903 23 227 9.7 17.7 0.00 0.00 0.00 25 1026.0
20260507140603 23 222 8.0 17.7 0.00 0.00 0.00 28 1025.8
20260507140517 23 219 8.0 17.7 0.00 0.00 0.00 27 1025.7
20260507140217 23 226 8.0 16.1 0.00 0.00 0.00 26 1025.5
20260507135703 23 235 8.0 16.1 0.00 0.00 0.00 27 1025.1
20260507135403 23 232 8.0 20.9 0.00 0.00 0.00 27 1025.4
20260507135103 23 235 9.7 25.7 0.00 0.00 0.00 26 1025.6
20260507134803 23 237 9.7 25.7 0.00 0.00 0.00 25 1025.4
20260507134503 23 239 11.3 25.7 0.00 0.00 0.00 26 1025.3
20260507134203 23 236 11.3 25.7 0.00 0.00 0.00 25 1025.3
20260507133903 23 235 11.3 20.9 0.00 0.00 0.00 26 1025.4
20260507133603 23 239 9.7 17.7 0.00 0.00 0.00 27 1025.1
20260507133303 23 237 9.7 17.7 0.00 0.00 0.00 28 1025.3
20260507133217 23 238 9.7 17.7 0.00 0.00 0.00 28 1025.1
20260507132703 23 224 8.0 20.9 0.00 0.00 0.00 28 1025.2
20260507132403 23 232 9.7 20.9 0.00 0.00 0.00 28 1025.4
20260507132103 23 237 9.7 20.9 0.00 0.00 0.00 29 1025.5
20260507131803 23 240 9.7 20.9 0.00 0.00 0.00 29 1025.3
20260507131503 23 244 8.0 20.9 0.00 0.00 0.00 28 1025.3
20260507131417 23 244 8.0 20.9 0.00 0.00 0.00 28 1025.3
20260507130903 23 248 8.0 20.9 0.00 0.00 0.00 29 1025.5
20260507130603 22 244 9.7 20.9 0.00 0.00 0.00 30 1025.4
20260507130303 22 242 9.7 20.9 0.00 0.00 0.00 33 1025.4
20260507130003 22 244 9.7 22.5 0.00 0.00 0.00 36 1025.4
20260507125916 22 243 11.3 22.5 0.00 0.00 0.00 37 1025.3
20260507125403 22 239 11.3 22.5 0.00 0.00 0.00 39 1025.7
20260507125103 22 235 9.7 22.5 0.00 0.00 0.00 39 1025.7
20260507124803 22 231 9.7 16.1 0.00 0.00 0.00 39 1025.7
20260507124503 22 232 9.7 16.1 0.00 0.00 0.00 39 1025.6
20260507124203 22 226 9.7 17.7 0.00 0.00 0.00 40 1025.8
20260507123903 22 231 9.7 17.7 0.00 0.00 0.00 40 1025.8
20260507123817 22 232 9.7 17.7 0.00 0.00 0.00 40 1025.7
20260507123303 22 235 8.0 16.1 0.00 0.00 0.00 39 1025.9
20260507123003 22 236 8.0 16.1 0.00 0.00 0.00 39 1025.8
20260507122705 22 243 9.7 22.5 0.00 0.00 0.00 39 1025.7
20260507122403 22 248 8.0 22.5 0.00 0.00 0.00 40 1026.0
20260507122103 22 243 8.0 22.5 0.00 0.00 0.00 39 1026.0
20260507122018 22 243 8.0 22.5 0.00 0.00 0.00 39 1026.1
20260507121504 22 228 8.0 16.1 0.00 0.00 0.00 36 1026.0
20260507121203 22 229 8.0 16.1 0.00 0.00 0.00 35 1026.0
20260507121117 22 227 8.0 16.1 0.00 0.00 0.00 34 1025.9
20260507120603 22 225 8.0 14.5 0.00 0.00 0.00 40 1026.1
20260507120303 22 227 8.0 14.5 0.00 0.00 0.00 41 1026.0
20260507120003 22 232 8.0 14.5 0.00 0.00 0.00 44 1026.0
20260507115703 22 237 9.7 14.5 0.00 0.00 0.00 44 1026.1
20260507115403 22 237 8.0 14.5 0.00 0.00 0.00 49 1026.1
20260507115103 22 236 8.0 16.1 0.00 0.00 0.00 47 1026.1
20260507114803 22 229 8.0 16.1 0.00 0.00 0.00 49 1026.0
20260507114503 21 228 8.0 16.1 0.00 0.00 0.00 48 1026.0
20260507114203 22 227 9.7 16.1 0.00 0.00 0.00 48 1026.2
20260507113903 22 233 9.7 16.1 0.00 0.00 0.00 48 1026.2
20260507113816 22 233 9.7 16.1 0.00 0.00 0.00 48 1026.3
20260507113303 22 245 9.7 24.1 0.00 0.00 0.00 46 1026.1
20260507113003 21 242 9.7 24.1 0.00 0.00 0.00 47 1026.3
20260507112918 21 242 9.7 24.1 0.00 0.00 0.00 48 1025.9
20260507112618 21 234 9.7 16.1 0.00 0.00 0.00 48 1026.4
20260507112103 22 232 9.7 16.1 0.00 0.00 0.00 48 1026.3
20260507111803 22 233 9.7 20.9 0.00 0.00 0.00 45 1026.4
20260507111503 22 230 11.3 29.0 0.00 0.00 0.00 47 1026.5
20260507111203 22 234 12.9 29.0 0.00 0.00 0.00 44 1026.4
20260507110903 22 238 12.9 29.0 0.00 0.00 0.00 45 1026.5
20260507110819 22 237 12.9 29.0 0.00 0.00 0.00 44 1026.2
20260507110303 22 240 11.3 25.7 0.00 0.00 0.00 42 1026.2
20260507110003 22 238 12.9 25.7 0.00 0.00 0.00 47 1026.1
20260507105703 21 239 12.9 24.1 0.00 0.00 0.00 50 1026.1
20260507105403 21 236 14.5 24.1 0.00 0.00 0.00 52 1026.0
20260507105103 22 239 14.5 25.7 0.00 0.00 0.00 50 1026.3
20260507104803 22 236 14.5 25.7 0.00 0.00 0.00 50 1026.2
20260507104719 22 234 12.9 25.7 0.00 0.00 0.00 50 1026.3
20260507104203 22 233 11.3 24.1 0.00 0.00 0.00 51 1026.4
20260507103903 22 233 11.3 24.1 0.00 0.00 0.00 50 1026.3
20260507103603 22 237 9.7 24.1 0.00 0.00 0.00 52 1026.2
20260507103518 22 237 9.7 24.1 0.00 0.00 0.00 52 1026.1
20260507103003 22 229 9.7 20.9 0.00 0.00 0.00 53 1025.9
20260507102703 22 228 9.7 20.9 0.00 0.00 0.00 52 1025.8
20260507102617 22 227 9.7 16.1 0.00 0.00 0.00 52 1025.7
20260507102103 22 227 8.0 16.1 0.00 0.00 0.00 53 1025.6
20260507102017 22 226 8.0 16.1 0.00 0.00 0.00 53 1025.6
20260507101503 22 230 8.0 14.5 0.00 0.00 0.00 53 1025.3
20260507101203 22 234 8.0 14.5 0.00 0.00 0.00 55 1025.5
20260507100903 22 233 8.0 16.1 0.00 0.00 0.00 55 1025.8
20260507100603 22 225 6.4 16.1 0.00 0.00 0.00 54 1025.8
20260507100303 22 219 8.0 16.1 0.00 0.00 0.00 54 1025.8
20260507100217 21 221 8.0 17.7 0.00 0.00 0.00 54 1025.9
20260507095703 21 231 9.7 20.9 0.00 0.00 0.00 55 1025.9
20260507095403 22 237 9.7 20.9 0.00 0.00 0.00 54 1026.2
20260507095103 22 231 8.0 14.5 0.00 0.00 0.00 53 1026.0
20260507094803 22 229 8.0 14.5 0.00 0.00 0.00 52 1026.0
20260507094503 22 228 8.0 14.5 0.00 0.00 0.00 52 1025.9
20260507094203 22 227 8.0 14.5 0.00 0.00 0.00 50 1025.8
20260507093903 22 225 8.0 14.5 0.00 0.00 0.00 50 1025.9
20260507093603 22 208 6.4 14.5 0.00 0.00 0.00 48 1025.8
20260507093303 22 208 6.4 14.5 0.00 0.00 0.00 47 1025.8
20260507093003 22 201 6.4 12.9 0.00 0.00 0.00 45 1025.8
20260507092703 23 212 6.4 12.9 0.00 0.00 0.00 45 1025.8
20260507092403 23 228 6.4 17.7 0.00 0.00 0.00 44 1026.0
20260507092103 22 238 6.4 17.7 0.00 0.00 0.00 43 1025.7
20260507092017 22 240 6.4 17.7 0.00 0.00 0.00 42 1025.9
20260507091718 22 240 6.4 17.7 0.00 0.00 0.00 42 1025.8
20260507091203 22 237 6.4 14.5 0.00 0.00 0.00 42 1025.9
20260507090903 22 237 8.0 14.5 0.00 0.00 0.00 42 1025.9
20260507090603 22 238 6.4 14.5 0.00 0.00 0.00 39 1025.5
20260507090303 22 232 6.4 14.5 0.00 0.00 0.00 41 1025.9
20260507090217 22 229 6.4 14.5 0.00 0.00 0.00 41 1025.9
20260507085917 22 220 4.8 12.9 0.00 0.00 0.00 40 1025.7
20260507085403 22 200 3.2 9.7 0.00 0.00 0.00 40 1025.5
20260507085103 22 195 3.2 9.7 0.00 0.00 0.00 40 1025.5
20260507084803 22 201 4.8 9.7 0.00 0.00 0.00 40 1025.6
20260507084503 22 204 4.8 9.7 0.00 0.00 0.00 40 1025.9
20260507084203 22 206 4.8 9.7 0.00 0.00 0.00 40 1025.7
20260507083903 22 207 4.8 9.7 0.00 0.00 0.00 39 1026.0
20260507083603 22 197 4.8 9.7 0.00 0.00 0.00 39 1025.8
20260507083303 22 206 4.8 11.3 0.00 0.00 0.00 40 1026.0
20260507083003 21 206 4.8 11.3 0.00 0.00 0.00 40 1025.8
20260507082703 21 200 4.8 11.3 0.00 0.00 0.00 41 1025.7
20260507082403 22 216 6.4 11.3 0.00 0.00 0.00 41 1025.7
20260507082316 22 216 6.4 11.3 0.00 0.00 0.00 41 1025.8
20260507081803 22 229 4.8 11.3 0.00 0.00 0.00 42 1025.6
20260507081503 22 226 4.8 9.7 0.00 0.00 0.00 41 1025.5
20260507081203 21 226 4.8 11.3 0.00 0.00 0.00 41 1025.6
20260507080903 21 223 4.8 11.3 0.00 0.00 0.00 42 1025.4
20260507080817 21 221 4.8 11.3 0.00 0.00 0.00 42 1025.7
20260507080303 21 212 4.8 11.3 0.00 0.00 0.00 41 1025.7
20260507080003 22 211 4.8 11.3 0.00 0.00 0.00 41 1025.8
20260507075703 21 214 4.8 9.7 0.00 0.00 0.00 40 1025.8
20260507075616 21 218 4.8 9.7 0.00 0.00 0.00 40 1025.6
20260507075103 22 235 4.8 12.9 0.00 0.00 0.00 38 1025.8
20260507074803 21 240 4.8 12.9 0.00 0.00 0.00 39 1025.8
20260507074503 21 233 4.8 12.9 0.00 0.00 0.00 40 1025.8
20260507074203 21 227 4.8 12.9 0.00 0.00 0.00 40 1025.7
20260507074117 21 227 4.8 12.9 0.00 0.00 0.00 40 1025.7
20260507073603 20 234 4.8 11.3 0.00 0.00 0.00 39 1025.5
20260507073303 21 237 4.8 11.3 0.00 0.00 0.00 40 1025.5
20260507073004 21 228 4.8 11.3 0.00 0.00 0.00 40 1025.5
20260507072703 21 217 4.8 11.3 0.00 0.00 0.00 42 1025.3
20260507072403 21 206 4.8 9.7 0.00 0.00 0.00 42 1025.4
20260507072103 21 198 4.8 9.7 0.00 0.00 0.00 42 1025.3
20260507071804 20 218 4.8 12.9 0.00 0.00 0.00 42 1025.5
20260507071503 20 210 4.8 12.9 0.00 0.00 0.00 43 1025.5
20260507071203 20 205 4.8 12.9 0.00 0.00 0.00 44 1025.5
20260507070903 21 193 4.8 12.9 0.00 0.00 0.00 44 1025.6
20260507070603 21 204 4.8 9.7 0.00 0.00 0.00 44 1025.5
20260507070303 20 217 4.8 9.7 0.00 0.00 0.00 46 1025.6
20260507070007 20 220 4.8 9.7 0.00 0.00 0.00 47 1025.7
20260507065703 20 223 4.8 9.7 0.00 0.00 0.00 47 1025.7
20260507065403 20 215 4.8 9.7 0.00 0.00 0.00 46 1025.7
20260507065103 20 216 4.8 9.7 0.00 0.00 0.00 46 1025.7
20260507064803 21 221 3.2 9.7 0.00 0.00 0.00 45 1025.8
20260507064503 21 217 3.2 9.7 0.00 0.00 0.00 45 1025.7
20260507064203 20 222 3.2 9.7 0.00 0.00 0.00 46 1025.8
20260507063903 20 230 4.8 9.7 0.00 0.00 0.00 47 1025.5
20260507063603 20 237 4.8 9.7 0.00 0.00 0.00 46 1025.4
20260507063303 21 230 4.8 9.7 0.00 0.00 0.00 44 1025.5
20260507063003 21 217 4.8 9.7 0.00 0.00 0.00 44 1025.6
20260507062703 21 210 3.2 6.4 0.00 0.00 0.00 44 1025.5
20260507062403 20 207 3.2 6.4 0.00 0.00 0.00 44 1025.5
20260507062103 20 214 3.2 6.4 0.00 0.00 0.00 45 1025.5
20260507062017 20 216 3.2 6.4 0.00 0.00 0.00 45 1025.4
20260507061503 20 203 3.2 4.8 0.00 0.00 0.00 45 1025.4
20260507061417 20 197 1.6 4.8 0.00 0.00 0.00 45 1025.6
20260507060903 21 198 1.6 4.8 0.00 0.00 0.00 44 1025.4
20260507060603 20 200 1.6 4.8 0.00 0.00 0.00 45 1025.4
20260507060303 20 204 1.6 4.8 0.00 0.00 0.00 46 1025.4
20260507060003 20 167 1.6 3.2 0.00 0.00 0.00 45 1025.0
20260507055703 21 110 1.6 3.2 0.00 0.00 0.00 44 1025.0
20260507055403 21 100 0.0 1.6 0.00 0.00 0.00 44 1025.1
20260507055103 21 96 0.0 1.6 0.00 0.00 0.00 44 1025.2
20260507054803 20 93 0.0 3.2 0.00 0.00 0.00 45 1025.1
20260507054717 20 93 0.0 3.2 0.00 0.00 0.00 45 1024.9
20260507054203 20 87 1.6 3.2 0.00 0.00 0.00 47 1025.0
20260507053904 19 83 1.6 3.2 0.00 0.00 0.00 48 1025.0
20260507053603 19 75 3.2 3.2 0.00 0.00 0.00 49 1024.9
20260507053303 18 72 3.2 6.4 0.00 0.00 0.00 50 1024.8
20260507053004 18 70 3.2 6.4 0.00 0.00 0.00 50 1024.8
20260507052703 18 66 3.2 6.4 0.00 0.00 0.00 51 1024.8
20260507052403 18 68 3.2 6.4 0.00 0.00 0.00 48 1024.8
20260507052103 18 64 3.2 6.4 0.00 0.00 0.00 48 1024.7
20260507051803 18 67 3.2 6.4 0.00 0.00 0.00 47 1024.7
20260507051503 18 64 1.6 4.8 0.00 0.00 0.00 47 1024.7
20260507051203 18 63 3.2 6.4 0.00 0.00 0.00 47 1024.8
20260507050904 18 58 3.2 6.4 0.00 0.00 0.00 48 1024.6
20260507050818 18 58 3.2 6.4 0.00 0.00 0.00 48 1024.6
20260507050303 17 49 3.2 6.4 0.00 0.00 0.00 48 1024.7
20260507050218 17 48 3.2 6.4 0.00 0.00 0.00 48 1024.7
20260507045917 17 50 3.2 6.4 0.00 0.00 0.00 49 1024.9
20260507045403 17 50 3.2 6.4 0.00 0.00 0.00 48 1024.8
20260507045103 17 48 3.2 9.7 0.00 0.00 0.00 49 1024.8
20260507045017 17 47 3.2 9.7 0.00 0.00 0.00 49 1024.7
20260507044504 17 52 1.6 9.7 0.00 0.00 0.00 49 1024.8
20260507044203 17 56 3.2 9.7 0.00 0.00 0.00 49 1024.9
20260507043903 16 54 3.2 9.7 0.00 0.00 0.00 50 1024.7
20260507043603 16 55 4.8 9.7 0.00 0.00 0.00 50 1024.7
20260507043303 16 51 4.8 9.7 0.00 0.00 0.00 50 1024.7
20260507043003 16 55 3.2 9.7 0.00 0.00 0.00 50 1024.7
20260507042703 16 59 3.2 6.4 0.00 0.00 0.00 51 1024.5
20260507042617 16 58 3.2 6.4 0.00 0.00 0.00 51 1024.5
20260507042103 16 56 4.8 9.7 0.00 0.00 0.00 53 1024.7
20260507042016 16 56 4.8 9.7 0.00 0.00 0.00 52 1024.7
20260507041503 16 50 4.8 9.7 0.00 0.00 0.00 53 1024.6
20260507041203 16 51 3.2 9.7 0.00 0.00 0.00 53 1024.7
20260507040903 16 57 3.2 6.4 0.00 0.00 0.00 53 1024.8
20260507040603 16 64 3.2 6.4 0.00 0.00 0.00 53 1024.8
20260507040303 16 69 3.2 6.4 0.00 0.00 0.00 53 1024.9
20260507040003 16 73 1.6 6.4 0.00 0.00 0.00 53 1024.9
20260507035917 16 72 1.6 6.4 0.00 0.00 0.00 53 1024.9
20260507035403 16 73 3.2 6.4 0.00 0.00 0.00 53 1024.9
20260507035103 16 74 3.2 6.4 0.00 0.00 0.00 53 1024.9
20260507034803 16 71 3.2 6.4 0.00 0.00 0.00 53 1024.9
20260507034503 16 71 3.2 6.4 0.00 0.00 0.00 53 1024.9
20260507034203 16 69 3.2 6.4 0.00 0.00 0.00 54 1024.7
20260507033903 16 71 3.2 6.4 0.00 0.00 0.00 54 1024.8
20260507033603 16 69 1.6 3.2 0.00 0.00 0.00 54 1024.5
20260507033303 16 67 1.6 3.2 0.00 0.00 0.00 54 1024.7
20260507033004 16 63 1.6 3.2 0.00 0.00 0.00 54 1024.4
20260507032703 16 63 1.6 4.8 0.00 0.00 0.00 54 1024.7
20260507032403 16 66 1.6 4.8 0.00 0.00 0.00 54 1024.4
20260507032103 16 67 1.6 4.8 0.00 0.00 0.00 54 1024.6
20260507031803 16 59 1.6 4.8 0.00 0.00 0.00 54 1024.4
20260507031503 16 58 1.6 4.8 0.00 0.00 0.00 54 1024.5
20260507031203 16 58 3.2 4.8 0.00 0.00 0.00 54 1024.5
20260507030903 16 59 3.2 4.8 0.00 0.00 0.00 54 1024.7
20260507030603 16 58 1.6 3.2 0.00 0.00 0.00 54 1024.5
20260507030303 16 59 1.6 4.8 0.00 0.00 0.00 54 1024.7
20260507030003 16 64 1.6 4.8 0.00 0.00 0.00 54 1024.4
20260507025703 16 69 1.6 4.8 0.00 0.00 0.00 53 1024.5
20260507025403 16 72 1.6 4.8 0.00 0.00 0.00 53 1024.3
20260507025103 16 76 1.6 4.8 0.00 0.00 0.00 53 1024.5
20260507024803 16 78 1.6 4.8 0.00 0.00 0.00 53 1024.6
20260507024503 16 80 1.6 4.8 0.00 0.00 0.00 53 1024.4
20260507024204 16 86 1.6 3.2 0.00 0.00 0.00 53 1024.4
20260507023903 16 89 1.6 3.2 0.00 0.00 0.00 53 1024.8
20260507023604 16 89 1.6 3.2 0.00 0.00 0.00 53 1024.5
20260507023303 16 90 1.6 3.2 0.00 0.00 0.00 53 1024.3
20260507023003 16 90 0.0 1.6 0.00 0.00 0.00 53 1024.4
20260507022703 16 90 0.0 1.6 0.00 0.00 0.00 53 1024.5
20260507022403 16 91 0.0 1.6 0.00 0.00 0.00 52 1024.3
20260507022103 16 91 1.6 1.6 0.00 0.00 0.00 52 1024.5
20260507022018 16 91 1.6 1.6 0.00 0.00 0.00 52 1024.5
20260507021503 16 92 0.0 1.6 0.00 0.00 0.00 52 1024.4
20260507021203 16 92 0.0 1.6 0.00 0.00 0.00 53 1024.4
20260507021117 16 92 0.0 1.6 0.00 0.00 0.00 53 1024.5
20260507020603 16 95 1.6 3.2 0.00 0.00 0.00 52 1024.5
20260507020303 16 103 1.6 3.2 0.00 0.00 0.00 52 1024.5
20260507020216 16 105 1.6 3.2 0.00 0.00 0.00 52 1024.3
20260507015703 16 115 3.2 4.8 0.00 0.00 0.00 52 1024.4
20260507015403 16 114 3.2 4.8 0.00 0.00 0.00 52 1024.3
20260507015103 16 111 3.2 4.8 0.00 0.00 0.00 52 1024.3
20260507014803 16 113 3.2 4.8 0.00 0.00 0.00 51 1024.5
20260507014503 16 113 1.6 4.8 0.00 0.00 0.00 51 1024.3
20260507014203 16 108 1.6 4.8 0.00 0.00 0.00 50 1024.3
20260507013903 16 86 1.6 3.2 0.00 0.00 0.00 50 1024.2
20260507013603 17 67 1.6 3.2 0.00 0.00 0.00 50 1024.2
20260507013303 17 61 1.6 3.2 0.00 0.00 0.00 50 1024.1
20260507013003 16 50 0.0 1.6 0.00 0.00 0.00 50 1024.2
20260507012703 16 50 0.0 1.6 0.00 0.00 0.00 51 1024.0
20260507012403 16 49 0.0 1.6 0.00 0.00 0.00 51 1024.0
20260507012318 16 49 0.0 1.6 0.00 0.00 0.00 51 1024.0
20260507011803 17 49 0.0 1.6 0.00 0.00 0.00 49 1024.0
20260507011503 17 49 0.0 1.6 0.00 0.00 0.00 49 1023.9
20260507011417 17 49 0.0 1.6 0.00 0.00 0.00 49 1024.0
20260507011117 17 50 0.0 1.6 0.00 0.00 0.00 49 1023.9
20260507010603 17 48 1.6 3.2 0.00 0.00 0.00 49 1023.7
20260507010303 17 46 1.6 3.2 0.00 0.00 0.00 49 1023.7
20260507010003 17 42 1.6 3.2 0.00 0.00 0.00 49 1023.7
20260507005703 17 35 1.6 3.2 0.00 0.00 0.00 49 1023.7
20260507005403 17 25 1.6 3.2 0.00 0.00 0.00 49 1023.8
20260507005103 17 20 1.6 3.2 0.00 0.00 0.00 49 1023.8
20260507004803 17 16 1.6 1.6 0.00 0.00 0.00 50 1023.5
20260507004503 17 16 1.6 4.8 0.00 0.00 0.00 50 1023.7
20260507004203 17 16 1.6 4.8 0.00 0.00 0.00 50 1023.8
20260507003903 17 12 1.6 4.8 0.00 0.00 0.00 50 1023.7
20260507003603 17 19 1.6 4.8 0.00 0.00 0.00 50 1023.8
20260507003303 17 18 1.6 4.8 0.00 0.00 0.00 50 1023.5
20260507003003 17 27 1.6 4.8 0.00 0.00 0.00 50 1023.4
20260507002703 17 27 1.6 4.8 0.00 0.00 0.00 50 1023.3
20260507002403 17 44 1.6 3.2 0.00 0.00 0.00 49 1023.7
20260507002317 17 45 1.6 3.2 0.00 0.00 0.00 49 1023.3
20260507001803 17 64 1.6 3.2 0.00 0.00 0.00 49 1023.4
20260507001503 17 73 0.0 3.2 0.00 0.00 0.00 49 1023.3
20260507001204 17 76 1.6 3.2 0.00 0.00 0.00 49 1023.2
20260507000903 17 79 1.6 3.2 0.00 0.00 0.00 49 1023.7
20260507000818 17 79 1.6 3.2 0.00 0.00 0.00 49 1023.7
20260507000303 17 82 1.6 3.2 0.00 0.00 0.00 48 1023.7
20260507000219 17 82 1.6 3.2 0.00 0.00 0.00 49 1023.7
20260506235703 17 87 1.6 3.2 0.00 0.00 0.00 48 1023.8
20260506235617 17 88 1.6 3.2 0.00 0.00 0.00 48 1023.9
20260506235103 17 94 1.6 3.2 0.00 0.00 0.00 48 1023.8
20260506235017 17 94 1.6 3.2 0.00 0.00 0.00 48 1024.0
20260506234503 17 93 1.6 3.2 0.00 0.00 0.00 48 1023.9
20260506234203 17 93 1.6 3.2 0.00 0.00 0.00 48 1024.2
20260506233903 17 93 1.6 1.6 0.00 0.00 0.00 48 1024.1
20260506233603 17 93 1.6 1.6 0.00 0.00 0.00 48 1024.1
20260506233303 17 93 0.0 1.6 0.00 0.00 0.00 48 1024.3
20260506233003 17 93 0.0 1.6 0.00 0.00 0.00 48 1024.1
20260506232703 17 0 0.0 0.0 0.00 0.00 0.00 48 1024.2
20260506232617 17 0 0.0 0.0 0.00 0.00 0.00 49 1024.2
20260506232103 17 93 0.0 1.6 0.00 0.00 0.00 48 1024.4
20260506231803 17 93 0.0 1.6 0.00 0.00 0.00 48 1024.4
20260506231503 17 93 0.0 1.6 0.00 0.00 0.00 48 1024.4
20260506231203 17 93 0.0 1.6 0.00 0.00 0.00 48 1024.3
20260506231118 17 93 0.0 1.6 0.00 0.00 0.00 48 1024.3
20260506230603 17 93 0.0 1.6 0.00 0.00 0.00 48 1024.3
20260506230303 17 93 0.0 1.6 0.00 0.00 0.00 48 1024.2
20260506230003 18 100 0.0 1.6 0.00 0.00 0.00 48 1024.3
20260506225703 18 102 1.6 1.6 0.00 0.00 0.00 48 1024.3
20260506225403 18 103 1.6 3.2 0.00 0.00 0.00 48 1024.2
20260506225317 18 103 1.6 3.2 0.00 0.00 0.00 48 1024.3
20260506224803 18 101 1.6 3.2 0.00 0.00 0.00 48 1024.7
20260506224503 18 100 1.6 3.2 0.00 0.00 0.00 48 1024.2
20260506224203 18 104 1.6 3.2 0.00 0.00 0.00 48 1024.4
20260506223903 17 248 0.0 1.6 0.00 0.00 0.00 49 1024.4
20260506223603 17 0 0.0 0.0 0.00 0.00 0.00 48 1024.3
20260506223517 17 0 0.0 0.0 0.00 0.00 0.00 48 1024.3
20260506223003 18 248 0.0 1.6 0.00 0.00 0.00 47 1024.5
20260506222703 18 247 0.0 1.6 0.00 0.00 0.00 46 1024.3
20260506222403 18 244 0.0 1.6 0.00 0.00 0.00 46 1024.4
20260506222103 18 241 0.0 1.6 0.00 0.00 0.00 47 1024.3
20260506221803 18 237 0.0 1.6 0.00 0.00 0.00 46 1024.4
20260506221504 18 231 0.0 1.6 0.00 0.00 0.00 47 1024.7
20260506221203 18 223 0.0 1.6 0.00 0.00 0.00 47 1024.7
20260506221118 18 223 0.0 1.6 0.00 0.00 0.00 47 1024.6
20260506220603 18 222 0.0 1.6 0.00 0.00 0.00 47 1024.6
20260506220303 18 222 0.0 1.6 0.00 0.00 0.00 47 1024.6
20260506220003 18 222 0.0 1.6 0.00 0.00 0.00 47 1024.5
20260506215703 18 221 0.0 1.6 0.00 0.00 0.00 48 1024.7
20260506215403 18 0 0.0 0.0 0.00 0.00 0.00 49 1024.5
20260506215103 18 0 0.0 0.0 0.00 0.00 0.00 49 1024.6
20260506214803 18 0 0.0 0.0 0.00 0.00 0.00 48 1024.7
20260506214718 18 0 0.0 0.0 0.00 0.00 0.00 48 1024.7
20260506214203 18 0 0.0 0.0 0.00 0.00 0.00 48 1024.8
20260506213903 18 0 0.0 0.0 0.00 0.00 0.00 47 1024.4
20260506213817 18 0 0.0 0.0 0.00 0.00 0.00 47 1024.4
20260506213303 18 0 0.0 0.0 0.00 0.00 0.00 47 1024.6
20260506213003 18 0 0.0 0.0 0.00 0.00 0.00 47 1024.7
20260506212703 19 221 0.0 1.6 0.00 0.00 0.00 46 1024.6
20260506212403 19 221 0.0 1.6 0.00 0.00 0.00 46 1024.8
20260506212318 19 221 0.0 1.6 0.00 0.00 0.00 46 1024.8
20260506212018 19 221 0.0 1.6 0.00 0.00 0.00 45 1024.8
20260506211503 18 0 0.0 0.0 0.00 0.00 0.00 46 1024.7
20260506211203 18 0 0.0 0.0 0.00 0.00 0.00 46 1024.7
20260506210903 19 0 0.0 0.0 0.00 0.00 0.00 45 1024.9
20260506210603 19 221 0.0 1.6 0.00 0.00 0.00 45 1024.7
20260506210303 19 221 0.0 1.6 0.00 0.00 0.00 45 1024.8
20260506210014 19 221 0.0 1.6 0.00 0.00 0.00 45 1024.8
20260506205703 19 221 0.0 1.6 0.00 0.00 0.00 44 1025.0
20260506205403 19 220 0.0 1.6 0.00 0.00 0.00 45 1024.8
20260506205103 19 230 0.0 3.2 0.00 0.00 0.00 44 1024.9
20260506204803 19 230 0.0 3.2 0.00 0.00 0.00 44 1024.9
20260506204503 19 241 0.0 3.2 0.00 0.00 0.00 44 1024.7
20260506204203 19 296 0.0 3.2 0.00 0.00 0.00 45 1024.8
20260506203903 19 301 0.0 3.2 0.00 0.00 0.00 45 1025.1
20260506203817 19 301 0.0 3.2 0.00 0.00 0.00 45 1025.0
20260506203304 19 292 0.0 1.6 0.00 0.00 0.00 45 1024.8
20260506203003 19 277 0.0 1.6 0.00 0.00 0.00 44 1025.1
20260506202704 19 277 0.0 1.6 0.00 0.00 0.00 44 1025.1
20260506202403 19 274 0.0 1.6 0.00 0.00 0.00 44 1025.2
20260506202103 19 237 0.0 1.6 0.00 0.00 0.00 44 1024.9
20260506201803 19 0 0.0 0.0 0.00 0.00 0.00 44 1025.1
20260506201503 19 236 0.0 1.6 0.00 0.00 0.00 43 1024.9
20260506201203 19 239 0.0 1.6 0.00 0.00 0.00 43 1024.7
20260506200903 20 241 1.6 3.2 0.00 0.00 0.00 43 1024.8
20260506200603 20 244 1.6 3.2 0.00 0.00 0.00 42 1025.0
20260506200518 20 244 1.6 3.2 0.00 0.00 0.00 42 1025.0
20260506200003 20 248 0.0 3.2 0.00 0.00 0.00 41 1024.7
20260506195703 20 303 0.0 3.2 0.00 0.00 0.00 40 1024.8
20260506195403 20 287 1.6 3.2 0.00 0.00 0.00 39 1024.7
20260506195103 20 274 1.6 3.2 0.00 0.00 0.00 39 1024.7
20260506194803 20 255 1.6 3.2 0.00 0.00 0.00 38 1024.8
20260506194717 20 248 1.6 3.2 0.00 0.00 0.00 38 1024.7
20260506194203 20 231 0.0 3.2 0.00 0.00 0.00 38 1024.4
20260506193903 20 226 0.0 1.6 0.00 0.00 0.00 38 1024.7
20260506193603 20 225 0.0 1.6 0.00 0.00 0.00 37 1024.7
20260506193518 20 225 0.0 1.6 0.00 0.00 0.00 37 1024.7
20260506193003 20 227 0.0 1.6 0.00 0.00 0.00 37 1024.6
20260506192703 20 228 0.0 1.6 0.00 0.00 0.00 37 1024.5
20260506192618 20 228 0.0 1.6 0.00 0.00 0.00 37 1024.5
20260506192103 20 236 0.0 3.2 0.00 0.00 0.00 37 1024.4
20260506191803 20 252 0.0 3.2 0.00 0.00 0.00 37 1024.0
20260506191717 20 255 0.0 3.2 0.00 0.00 0.00 38 1024.4
20260506191203 20 293 0.0 1.6 0.00 0.00 0.00 37 1024.3
20260506190903 20 303 0.0 1.6 0.00 0.00 0.00 37 1024.2
20260506190604 20 309 0.0 1.6 0.00 0.00 0.00 37 1024.3
20260506190306 20 312 0.0 1.6 0.00 0.00 0.00 37 1024.1
20260506190004 20 312 0.0 1.6 0.00 0.00 0.00 37 1024.0
20260506185703 20 312 0.0 1.6 0.00 0.00 0.00 38 1024.0
20260506185403 20 313 0.0 1.6 0.00 0.00 0.00 37 1024.1
20260506185103 20 314 0.0 1.6 0.00 0.00 0.00 37 1023.9
20260506184803 20 315 0.0 1.6 0.00 0.00 0.00 37 1024.1
20260506184503 20 316 0.0 1.6 0.00 0.00 0.00 37 1024.0
20260506184203 21 316 0.0 1.6 0.00 0.00 0.00 37 1023.9
20260506183903 21 316 0.0 1.6 0.00 0.00 0.00 37 1023.9
20260506183604 21 316 0.0 3.2 0.00 0.00 0.00 37 1023.9
20260506183518 21 317 0.0 3.2 0.00 0.00 0.00 37 1023.9
20260506183218 21 317 0.0 3.2 0.00 0.00 0.00 37 1023.9
20260506182703 21 315 0.0 3.2 0.00 0.00 0.00 38 1023.8
20260506182403 21 316 0.0 3.2 0.00 0.00 0.00 38 1023.9
20260506182103 21 311 1.6 3.2 0.00 0.00 0.00 37 1023.7
20260506181803 21 301 0.0 3.2 0.00 0.00 0.00 37 1023.7
20260506181719 21 299 0.0 3.2 0.00 0.00 0.00 37 1023.5
20260506181203 21 252 0.0 4.8 0.00 0.00 0.00 37 1023.7
20260506180903 21 246 1.6 4.8 0.00 0.00 0.00 37 1023.7
20260506180603 21 247 1.6 4.8 0.00 0.00 0.00 36 1023.7
20260506180303 21 249 1.6 4.8 0.00 0.00 0.00 36 1023.4
20260506180004 21 256 0.0 1.6 0.00 0.00 0.00 37 1023.7
20260506175703 21 284 1.6 4.8 0.00 0.00 0.00 37 1023.5
20260506175403 21 276 1.6 4.8 0.00 0.00 0.00 37 1023.5
20260506175103 21 275 1.6 4.8 0.00 0.00 0.00 37 1023.7
20260506175019 21 276 1.6 4.8 0.00 0.00 0.00 37 1023.5
20260506174503 21 236 0.0 1.6 0.00 0.00 0.00 37 1023.3
20260506174418 21 237 1.6 3.2 0.00 0.00 0.00 37 1023.3